Location: Joplin, MO
(37.0842°N, 94.5133°W)
Time: 11:29:02
(UTC+02:00)

Vanguard 3 - Pass Details

Date: 09 April 2023
Orbit: 507 x 3246 km, 33.4° (Epoch: 01 June)

Event Time Altitude Azimuth Distance (km) Brightness Sun altitude
Rises 04:32:12 0° 189° (S) 3,804 10.4 -20.7°
Enters shadow 04:34:38 - 176° (S) 3,361 10.0 -21.1°
Reaches altitude 10° 04:35:34 10° 170° (S) 3,244 - -21.3°
Maximum altitude 04:40:53 18° 130° (SE) 3,259 - -22.2°
Drops below altitude 10° 04:48:07 10° 94° (E) 4,636 - -23.5°
Sets 04:54:24 0° 79° (E) 6,212 - -24.6°
